Tracking 19484 objects as of 20-Jan-2019
HD Live streaming from Space Station
objects crossing your sky now

FENGYUN 1C DEB

Track FENGYUN 1C DEB now!
10-day predictions


NORAD ID: 31611
Int'l Code: 1999-025BZR
Perigee: 705.4 km
Apogee: 866.5 km
Inclination: 99.0 °
Period: 100.4 minutes
Semi major axis: 7156 km
RCS: 0.0063 m2 (small)
Launch date: May 10, 1999
Source: People's Republic of China (PRC)
Launch site: Taiyaun Space Center, China (TSC)

Note: This is SATELLITE DEBRIS
aabbcc
Your satellite tracking list
Your tracking list is empty




NASA's NSSDC Master Catalog

Two Line Element Set (TLE):
1 31611U 99025BZR 19017.33453851  .00001045  00000-0  36567-3 0  9997
2 31611  98.9758 146.5708 0112577 125.1086 291.4135 14.33876506604993
Source of the keplerian elements: AFSPC